Location: Caltech
(34.1382°N, 118.1253°W)
Time: 19:41:38
(UTC-08:00)

Cosmos 2360 Rocket - Visible Passes

Search period start: 19 December 2014 00:00
Search period end: 29 December 2014 00:00
Orbit: 835 x 845 km, 71.0° (Epoch: 19 December)

Date Brightness Start Highest point End Pass type
(mag) Time Alt. Az. Time Alt. Az. Time Alt. Az.
19 Dec 2.3 05:01:25 10° SSW 05:07:02 79° ESE 05:12:42 10° NNE visible
20 Dec 2.3 04:45:50 10° SSW 04:51:27 74° ESE 04:57:05 10° NNE visible
21 Dec 2.4 04:30:16 10° S 04:35:51 68° ESE 04:41:28 10° NNE visible
21 Dec 3.7 06:17:11 10° W 06:20:21 15° NW 06:23:33 10° NNW visible
22 Dec 2.5 04:20:05 63° ESE 04:20:15 64° ESE 04:25:50 10° NNE visible
22 Dec 3.6 06:02:06 12° W 06:04:42 16° NW 06:08:08 10° NNW visible
23 Dec 3.6 04:07:22 30° NE 04:07:22 30° NE 04:10:12 10° NNE visible
23 Dec 3.6 05:49:16 17° NW 05:49:16 17° NW 05:52:42 10° NNW visible
24 Dec 4.5 03:53:39 15° NNE 03:53:39 15° NNE 03:54:34 10° NNE visible
24 Dec 3.8 05:35:30 15° NNW 05:35:30 15° NNW 05:37:15 10° NNW visible
25 Dec 4.2 05:21:18 12° NNW 05:21:18 12° NNW 05:21:47 10° NNW visible
